CZ-6A DEB

Satellite information

Favourite Embed

Satellite Type and Status

DEBRISIN ORBIT

Key statistics

Satellite CZ-6A DEB at a glance.

Uptime

436

Days in orbit

Revolutions

≈ 14.0

Per day

Orbit

LEO

Low Earth Orbit

Inclination

88.8

Latest

Satellite identification and parameters

Extended collection of information and parameters for CZ-6A DEB.

Object identification

Identified? True

Debris? True

Object name: CZ-6A DEB

International designator: 2024-140AL

Object number (NORAD): 60635

Object ID (CCSDS): 60635

Country: PEOPLES REPUBLIC OF CHINA (PRC)

Current information (Y/N): Y

RCS size: MEDIUM

Orbital parameters

Period: 102.994 minutes

Inclination: 88.7898 deg

SMA: 7278.398 km

Apoapsis: 1008.809 km

Periapsis: 791.716 km

RAAN: 293.8296 deg

Eccentricy: 0.01491353

Argument of periapsis: 326.9739 deg

Mean anomaly: 32.2189 deg

Mean motion: 13.98134916 rev/day

Mean motion (dot): 0.00000787 rev/day2

B* drag term: 0.00049542907 1/REarth

Two-line elements (TLE)

Creation date: Oct. 16, 2025, 2:37 a.m.

Reference frame: TEME

Reference center: EARTH

Epoch: Oct. 15, 2025, 10:57 p.m. UTC

TLE line 0: 0 CZ-6A DEB

TLE line 1: 1 60635U 24140AL 25288.95645852 .00000787 00000-0 49543-3 0 9990

TLE line 2: 2 60635 88.7898 293.8296 0149135 326.9739 32.2189 13.98134916 60603

Live tracking on map

Real-time ground track for satellite CZ-6A DEB.

In-orbit conjunctions

A list of the most updated potential collisions computed for object CZ-6A DEB.

Target Orbit TCA Probability of collision Miss distance Type
FENGYUN 1C DEB SSO 2025-07-09 05:52:58 0.0001810148 294.0 (m) DEBRIS
FENGYUN 1C DEB SSO 2025-03-03 11:29:20 0.0002888575 531.0 (m) DEBRIS
CZ-6A DEB SSO 2025-02-15 21:49:48 0.0004742462 330.0 (m) DEBRIS
FENGYUN 1C DEB SSO 2025-01-03 11:02:00 0.0002025735 647.0 (m) DEBRIS
NOAA 16 DEB SSO 2024-11-30 23:50:32 0.0004022535 392.0 (m) DEBRIS

Associated space launch

18 Low Earth Orbit communication satellites with Ku, Q and V band payloads for the G60 constellation operated by Shanghai Spacecom Satellite Technology (SSST) with funding backed by the Shanghai local government. Initial constellation will consist of 1296 satellites by 2027 with long term plans to expand it to 12000 satellites.

CZ-6A DEB was lifted into orbit during the mission ‘Long March 6A | G60 Polar Group 01’, on board a Long March 6A space rocket.

The launch took place on Aug. 6, 2024, 6:42 a.m. from Launch Complex 9A.

For more information about the launch, click the button.

Launch to space Long March 6A | G60 Polar Group 01
Long March 6A | G60 Polar Group 01

Agency: N/A

Status: Launch Successful

Launch date: Aug. 6, 2024, 6:42 a.m. UTC

Rocket: Long March 6A

Launch pad: Launch Complex 9A

Location: Taiyuan Satellite Launch Center, People's Republic of China

...

Latest news about this satellite

News about space launch
Brightness of first Chinese broadband constellation satellites alarms astronomers

The first satellites of a Chinese broadband constellation are significantly brighter than those of Western systems, posing a new challenge for astronomers.

News about space launch
Chinese rocket stage breaks up into cloud of more than 700 pieces of space debris

HELSINKI — A Chinese Long March 6A rocket’s upper stage has fragmented into a cloud of over 700 pieces of space debris, adding to concerns about long-term orbital safety. China […]

News about space launch
China's Thousand Sails Megaconstellation Kicks Off with Dangerous Debris Field

China's Thousand Sails Megaconstellation Kicks Off with Dangerous Debris Field


Newsletter sign-up

Weekly statistics, charts and insights to help you stay on top of the space industry.